Torna al catalogo

STARLINK-35922

AttivoComunicazioniVLEO
NORAD 66502·PAYLOAD·🇺🇸 United States

Lanciato Nov 15, 2025 da Cape Canaveral Space Force Station

Loading…

Prossimi Passaggi (prossime 24 ore)

TLE

AggiornatoSource: CelesTrak SupGP

Epoca: Sep 14, 2026, 23:12 UTC

1 66502C 25263T   26257.96715278 -.00016860  00000+0 -61077-3 0  2577
2 66502  43.0016   2.0475 0001517 278.5495  59.1735 15.27581455    11

Traccia STARLINK-35922 in tempo reale con AllMySat

Download on the App Store